#timestamp,LO_Frequency,Hit,StdDev 
1510473615.6,286046993.6,N
1510473635.4,286046991.8,Y
1510473655.2,286046995.6,P
1510473675.1,286046997.8,N
1510473676.0,286046997.8,N
1510473695.8,286046997.1,N
1510473715.6,286046995.3,N
1510473735.5,286046995.2,N
1510473755.3,286046996.7,N
1510473775.1,286046998.6,N
1510473795.8,286047000.5,N
1510473815.7,286047001.4,N
1510473835.5,286047008.2,Y
1510473855.3,286047016.7,P
1510473875.2,286047015.3,N
1510473895.0,286047014.2,N
1510473895.9,286047014.2,N
1510473915.7,286047013.0,N
1510473935.6,286047013.4,N
1510473955.4,286047009.4,N
1510473975.2,286047006.5,N
1510473995.1,286047007.5,N
1510473996.0,286047007.5,N
1510474015.8,286047006.1,N
1510474035.6,286047004.4,N
1510474055.5,286047000.2,N
1510474075.3,286047001.2,N
1510474095.1,286047000.8,N
1510474115.9,286047001.9,N
1510474135.7,286046999.8,N
1510474155.5,286047000.7,N
1510474175.3,286046998.4,N
1510474195.2,286046999.1,N
1510474215.0,286046996.7,N
1510474215.9,286046996.7,N
1510474235.7,286046999.6,N
1510474255.6,286046997.3,N
1510474275.4,286046997.4,N
1510474295.2,286047003.6,N
1510474315.1,286047007.4,N
1510474316.0,286047007.4,N
1510474335.8,286047008.4,N
1510474355.6,286047007.0,N
1510474375.5,286047003.5,N
1510474395.3,286047000.7,N
1510474415.1,286047000.8,N
1510474435.9,286047001.5,N
1510474455.7,286047008.9,N
1510474475.5,286047008.1,N
1510474495.4,286047006.1,N
1510474515.2,286047008.8,N
1510474535.0,286047005.7,N
1510474535.9,286047005.7,N
1510474555.7,286047001.6,N
1510474575.6,286046998.7,N
1510474595.4,286046996.5,N
1510474615.2,286046996.2,N
1510474635.1,286046994.6,N
1510474636.0,286046994.6,N
1510474655.8,286046995.7,N
1510474675.6,286046996.4,N
1510474695.5,286046993.0,N
1510474715.3,286046994.7,N
1510474735.1,286046993.9,N
1510474755.9,286046994.3,N
1510474775.7,286046992.9,N
1510474795.5,286046993.2,N
1510474815.4,286046992.4,N
1510474835.2,286046994.4,N
1510474855.0,286046993.2,N
1510474855.9,286046993.2,N
1510474875.8,286046992.2,N
1510474895.6,286046994.3,N
1510474915.4,286046995.2,N
1510474935.3,286046993.4,N
1510474955.1,286046993.8,N
1510474956.0,286046993.8,N
1510474975.8,286046992.4,N
1510474995.6,286046993.3,N
1510475015.5,286046995.1,N
1510475035.3,286046996.0,N
1510475055.1,286046992.7,N
1510475075.9,286046993.8,N
1510475095.7,286046992.1,Y
1510475115.5,286047001.2,P
1510475135.4,286047003.3,N
1510475155.2,286047008.5,N
1510475175.0,286047006.2,N
1510475175.9,286047006.2,N
1510475195.8,286047003.3,N
1510475215.6,286047002.3,N
1510475235.4,286047000.2,N
1510475255.3,286046999.9,N
1510475275.1,286046998.5,N
1510475276.0,286046998.5,N
1510475295.8,286047000.6,N
1510475315.7,286047000.8,N
1510475335.5,286046999.6,N
1510475355.3,286046997.9,N
1510475375.1,286046996.0,N
1510475395.9,286046992.9,N
1510475415.7,286046993.1,N
1510475435.5,286046990.9,N
1510475455.4,286046988.6,N
1510475475.2,286046991.3,N
1510475495.0,286046990.1,N
1510475495.9,286046990.1,N
1510475515.8,286046993.2,N
1510475535.6,286046991.7,N
1510475555.4,286046996.4,N
1510475575.3,286046993.7,N
1510475595.1,286046996.4,N
1510475596.0,286046996.4,N
1510475615.8,286046995.2,N
1510475635.7,286046993.3,N
1510475655.5,286046997.9,N
1510475675.3,286046999.4,N
1510475695.2,286046998.6,N
1510475715.9,286047001.1,N
1510475735.7,286046996.6,N
1510475755.5,286046998.2,N
1510475775.4,286046999.8,N
1510475795.2,286047001.6,N
1510475815.0,286047000.8,N
1510475815.9,286047000.8,N
1510475835.8,286047000.2,N
1510475855.6,286047000.5,N
1510475875.4,286046995.7,N
1510475895.3,286046997.8,N
1510475915.1,286047000.2,N
1510475935.8,286047001.3,N
1510475955.7,286047001.0,N
1510475975.5,286046999.0,N
1510475995.3,286047000.1,N
1510476015.2,286046999.8,N
1510476035.9,286046999.1,N
1510476055.7,286047001.1,N
1510476075.6,286047001.8,N
1510476095.4,286047003.4,N
1510476115.2,286047002.6,N
1510476135.0,286046999.4,N
1510476135.9,286046999.4,N
1510476155.8,286046997.7,N
1510476175.6,286046999.6,N
1510476195.4,286046998.3,N
1510476215.3,286046998.3,N
1510476235.1,286047001.1,N
1510476255.8,286047001.5,N
1510476275.7,286047002.6,N
1510476295.5,286047002.6,N
1510476315.3,286047000.4,N
1510476335.2,286046999.5,N
1510476355.9,286046999.3,N
1510476375.7,286046999.7,N
1510476395.6,286046999.6,N
1510476415.4,286046999.3,N
1510476435.2,286046998.2,N
1510476455.0,286046998.5,N
1510476455.9,286046998.5,N
1510476475.8,286046999.3,N
1510476495.6,286046998.9,N
1510476515.4,286047000.9,N
1510476535.3,286047000.4,N
1510476555.1,286046999.5,N
1510476575.8,286046995.2,Y
1510476595.7,286046993.8,P
1510476615.5,286046993.6,N
1510476635.3,286046995.6,N
1510476655.2,286046995.4,N
1510476675.9,286046995.5,N
1510476695.7,286046995.9,N
1510476715.6,286046996.7,N
1510476735.4,286046995.9,N
1510476755.2,286046994.4,Y
1510476775.1,286046998.7,P
1510476776.0,286046998.7,N
1510476795.8,286047000.7,N
1510476815.6,286047000.3,N
1510476835.5,286047000.1,N
1510476855.3,286047001.6,N
1510476875.1,286047000.2,N
1510476895.9,286047000.4,N
1510476915.7,286046999.2,N
1510476935.5,286046996.7,N
1510476955.3,286046998.5,N
1510476975.2,286047000.3,N
1510476995.0,286047001.6,N
1510476995.9,286047001.6,N
1510477015.7,286047000.6,N
1510477035.6,286047000.5,N
1510477055.4,286046996.8,N
1510477075.2,286047000.6,N
1510477095.1,286047002.4,N
1510477096.0,286047002.4,N
1510477115.8,286047000.6,N
1510477135.6,286046998.8,N
1510477155.5,286046999.1,N
1510477175.3,286046995.2,N
1510477195.1,286046998.0,N
